STARLINK-1457 (45674 NORAD) Tracking and Keplerian Element Data

This shows tracking and keplerian element data for the satellite.

Feedback or suggestion? Click here.




ElementValue
Catalog45674
NameSTARLINK-1457
Epoch Orbit655
Epoch Day192.16668981
Epoch Year2020
RAAN353.786
Inclination53.0029
Eccentricity0.0001306
Argument of Perigee79.9336
Mean Anonmoly155.4216
Mean Motion15.33920232
Decay Rate-0.01074592
L11 45674U 20035T 20192.16668981 -.01074592 00000-0 -35205-1 0 9991
L22 45674 53.0029 353.7860 0001306 79.9336 155.4216 15.33920232 6556

Live tracking and technical data element details for STARLINK-1457 (NORAD 45674). STARLINK-1457 can be tracked NOW for your location showing map with azimuth and elevation plus other details from your city location.

Track the satellite on the map from your city or location and see movement details for azimuth, elevation, latitude, longitude, range, height, and movement on the map or in text.







IsCatalogInMostPopularTable: catalog: 45674, numindb: 6
Update: records affected: 1



GetName: 45674 STARLINK-1457

Hit Count: updated at: Fri, 10 Jul 2020 15:47:19 GMT